College Station, TX

1:34 AM CDT on August 20, 2017 (GMT -0500)
Easterwood

Weather History for KCLL - October, 2011

Change the Weather History Date:

Monday, October 17, 2011

  Actual Average Record
Temperature  
Mean Temperature 77 °F 71 °F  
Max Temperature 89 °F 81 °F 92 °F (1915)
Min Temperature 65 °F 60 °F 42 °F (2001)
Degree Days  
Heating Degree Days 0 1  
Month to date heating degree days 0 7  
Since 1 July heating degree days 0 9  
Cooling Degree Days 12 7  
Month to date cooling degree days 169 143  
Year to date cooling degree days 3874 2939  
Growing Degree Days 26 (Base 50)    
Moisture  
Dew Point 65 °F    
Average Humidity 70    
Maximum Humidity 100    
Minimum Humidity 40    
Precipitation  
Precipitation 0.00 in 0.18 in 4.05 in (1937)
Month to date precipitation 0.88 2.65  
Year to date precipitation 14.05 31.35  
Sea Level Pressure  
Sea Level Pressure 29.89 in    
Wind  
Wind Speed 9 mph (South)    
Max Wind Speed 18 mph    
Max Gust Speed 24 mph    
Visibility 5 miles    
Events Fog    
T = Trace of Precipitation, MM = Missing Value Source: NWS Daily Summary

Daily Weather History Graph

Daily Weather History Graph

Search for Another Location

Airport or City:

Trip Planner

Search our weather history database for the weather conditions in past years. The results will help you decide how hot, cold, wet, or windy it might be!

Date:

Astronomy

Oct. 17, 2011 Rise Set
Actual Time 7:28 AM CDT 6:52 PM CDT
Civil Twilight 7:04 AM CDT 7:16 PM CDT
Nautical Twilight 6:36 AM CDT 7:44 PM CDT
Astronomical Twilight 6:08 AM CDT 8:12 PM CDT
Moon 10:50 PM CDT (10/17) 12:19 PM CDT (10/17)
Length of Visible Light 12h 11m
Length of Day
11h 23m
Waning Gibbous, 74% of the Moon is Illuminated
Oct 17
Waning Gibbous
Oct 19
Last Quarter
Oct 26
New
Nov 2
First Quarter
Nov 10
Full

Hourly Weather History & Observations

Time (CDT) Temp. Heat Index Dew Point Humidity Pressure Visibility Wind Dir Wind Speed Gust Speed Precip Events Conditions
12:53 AM 70.0 °F - 64.0 °F 81% 29.97 in 10.0 mi South 6.9 mph - N/A   Clear
1:53 AM 70.0 °F - 64.9 °F 84% 29.97 in 10.0 mi South 6.9 mph - N/A   Clear
2:53 AM 69.1 °F - 66.0 °F 90% 29.96 in 10.0 mi SSW 3.5 mph - N/A   Clear
3:53 AM 68.0 °F - 66.0 °F 93% 29.94 in 8.0 mi South 3.5 mph - N/A   Clear
4:53 AM 66.2 °F - 64.4 °F 94% 29.95 in 6.0 mi Calm Calm - N/A   Clear
5:12 AM 66.2 °F - 64.4 °F 94% 29.95 in 1.8 mi Calm Calm - N/A   Clear
5:14 AM 66.2 °F - 64.4 °F 94% 29.95 in 1.0 mi Calm Calm - N/A   Mist
5:21 AM 66.2 °F - 64.4 °F 94% 29.95 in 0.5 mi Calm Calm - N/A Fog Fog
5:33 AM 64.4 °F - 64.4 °F 100% 29.95 in 2.0 mi Calm Calm - N/A   Mostly Cloudy
5:41 AM 66.2 °F - 64.4 °F 94% 29.95 in 1.0 mi Calm Calm - N/A   Mist
5:48 AM 64.4 °F - 64.4 °F 100% 29.95 in 0.5 mi Calm Calm - N/A Fog Fog
5:53 AM 64.9 °F - 64.0 °F 97% 29.94 in 0.5 mi Calm Calm - N/A Fog Fog
6:03 AM 64.4 °F - 64.4 °F 100% 29.95 in 0.2 mi Calm Calm - N/A Fog Fog
6:11 AM 66.2 °F - 64.4 °F 94% 29.95 in 0.2 mi Calm Calm - N/A Fog Fog
6:31 AM 66.2 °F - 66.2 °F 100% 29.95 in 0.2 mi Calm Calm - N/A Fog Fog
6:42 AM 66.2 °F - 66.2 °F 100% 29.94 in 0.8 mi Calm Calm - N/A   Mist
6:53 AM 66.9 °F - 66.9 °F 100% 29.93 in 0.5 mi South 4.6 mph - N/A Fog Fog
7:00 AM 66.2 °F - 66.2 °F 100% 29.94 in 0.2 mi SSE 3.5 mph - N/A Fog Fog
7:21 AM 68.0 °F - 66.2 °F 94% 29.94 in 0.2 mi South 3.5 mph - N/A Fog Fog
7:34 AM 68.0 °F - 66.2 °F 94% 29.94 in 0.2 mi South 4.6 mph - N/A Fog Fog
7:53 AM 68.0 °F - 66.9 °F 96% 29.93 in 0.1 mi South 4.6 mph - N/A Fog Fog
8:07 AM 68.0 °F - 66.2 °F 94% 29.94 in 0.2 mi SSW 5.8 mph - N/A Fog Fog
8:36 AM 66.2 °F - 66.2 °F 100% 29.93 in 0.1 mi South 5.8 mph - N/A Fog Fog
8:53 AM 68.0 °F - 66.9 °F 96% 29.93 in 0.1 mi South 4.6 mph - N/A Fog Fog
9:14 AM 68.0 °F - 66.2 °F 94% 29.93 in 0.5 mi South 6.9 mph - N/A Fog Fog
9:34 AM 69.8 °F - 68.0 °F 94% 29.94 in 1.2 mi SSW 5.8 mph - N/A   Overcast
9:44 AM 69.8 °F - 68.0 °F 94% 29.94 in 3.0 mi South 6.9 mph - N/A   Overcast
9:53 AM 69.1 °F - 68.0 °F 96% 29.93 in 6.0 mi South 9.2 mph - N/A   Overcast
10:36 AM 71.6 °F - 68.0 °F 88% 29.94 in 10.0 mi SW 6.9 mph - N/A   Overcast
10:53 AM 73.9 °F - 69.1 °F 85% 29.93 in 10.0 mi SSW 8.1 mph - N/A   Overcast
11:05 AM 75.2 °F - 69.8 °F 83% 29.93 in 10.0 mi South 8.1 mph - N/A   Mostly Cloudy
11:53 AM 80.1 °F 82.3 °F 66.9 °F 64% 29.90 in 10.0 mi Variable 5.8 mph - N/A   Mostly Cloudy
12:18 PM 80.6 °F 82.7 °F 66.2 °F 61% 29.90 in 10.0 mi SW 8.1 mph - N/A   Mostly Cloudy
12:53 PM 82.9 °F 85.0 °F 66.0 °F 56% 29.86 in 10.0 mi SSE 6.9 mph - N/A   Partly Cloudy
1:53 PM 86.0 °F 87.3 °F 64.0 °F 48% 29.81 in 10.0 mi SSW 12.7 mph 18.4 mph N/A   Scattered Clouds
2:53 PM 87.1 °F 87.5 °F 62.1 °F 43% 29.77 in 10.0 mi South 13.8 mph 21.9 mph N/A   Scattered Clouds
3:53 PM 88.0 °F 88.4 °F 62.1 °F 42% 29.74 in 10.0 mi South 12.7 mph 19.6 mph N/A   Clear
4:53 PM 88.0 °F 87.6 °F 60.1 °F 39% 29.73 in 10.0 mi South 15.0 mph - N/A   Clear
5:53 PM 87.1 °F 86.7 °F 60.1 °F 40% 29.72 in 10.0 mi South 15.0 mph - N/A   Clear
6:53 PM 84.0 °F 84.0 °F 60.1 °F 44% 29.72 in 10.0 mi South 8.1 mph - N/A   Clear
7:53 PM 79.0 °F - 61.0 °F 54% 29.71 in 10.0 mi SSE 6.9 mph - N/A   Clear
8:53 PM 80.1 °F 81.2 °F 62.1 °F 54% 29.71 in 10.0 mi South 9.2 mph - N/A   Clear
9:53 PM 79.0 °F - 64.0 °F 60% 29.70 in 10.0 mi South 13.8 mph - N/A   Clear
10:53 PM 77.0 °F - 64.9 °F 66% 29.70 in 10.0 mi South 18.4 mph 23.0 mph N/A   Clear
11:53 PM 75.0 °F - 66.0 °F 73% 29.68 in 10.0 mi South 15.0 mph 21.9 mph N/A   Clear